map of KVD home
Great Circle Mapper logo
KVD - Airport
Location
City:  Ganja, Göygöl, Azerbaijan
Near (Alt.):Gyandzha
Name:Ganja International Airport
ICAO / IATA:UBBG / KVD

Details
Type:Airport (Aerodrome, Airfield)
Use:Public/Civil, International (customs port of entry)
Latitude:40°44'16"N (40.737678)
Longitude:46°19'03"E (46.317581)
Elevation:1083 ft (330 m)
Variation:6.24°E (WMM2015 magnetic declination)
0.07° annual change
Runways:1
Longest:8217 × 144 ft (2505 × 44 m), paved

Time
Time Zone:UTC+4 (DST+5)
Local Time:

Weather
METAR:UBBG 060830Z 30012KT 9999 SCT100 17/M06 Q1010 R30/CLRD// NOSIG
TAF:UBBG 052235Z 0600/0624 31010KT 9999 SCT040 BKN080 TX16/0612Z TN06/0603Z
TEMPO 0600/0604 22008KT

Related Locations
Nearby:
Farthest:GMR: 11211 mi / 18043 km
Mangareva [Totegegie], Gambier Islands, PF

Find:

   beyond  
but within

Other Information
Maps:
NOTAMs:
Links:
Sources:

  
flag of Azerbaijan   

Sectional Chart

Flight Planning
at skyvector.com

Satellite Image

Google Maps Satellite view

 

Copyright © 2004-2016 Karl L. Swartz. All rights reserved.
The Great Circle Mapper name and logo are trademarks of the Great Circle Mapper.
All other trademarks mentioned herein belong to their respective owners.
Please see credits for attibutions and further copyright information.

  Follow gcmap on Facebook Follow gcmap on Twitter Follow gcmap on Google+ GCmap on LinkedIn

hCard Microformat

Geo Microformat